sat.trackr.live / text

‹ back to catalog

STARLINK-5829

NORAD 56347 · 2023-058AG

PAYLOAD ACTIVE UNKNOWN

§ Identity

Operator
Country
US
Launch date
2023-04-27
Launch site
AFWTR
Launch vehicle
Mass (kg)
RCS (m²)

Purposes: comms

External: N2YO · Heavens-Above · Gunter

§ Orbital elements

Epoch: 2026-09-20T22:10:43.667328Z

Period
93.91 min
Inclination
97.2845°
Eccentricity
0.0001591
Mean motion
15.33435380 rev/d
Perigee alt
464.5 km
Apogee alt
466.7 km
Semi-major
6,843.7 km
B*
8.7476e-6
RAAN
260.7263°
Arg perigee
93.6676°
Mean anomaly
266.4748°
Rev number
18,770

§ Raw data

STARLINK-58291 56347U 23058AG  26263.92411652  .00000207  00000+0  87476-5 0  99972 56347  97.2845 260.7263 0001591  93.6676 266.4748 15.33435380187706

JSON: /api/v1/satellites/56347 · /tle

For live sub-satellite position, see the globe view (requires WebGL).

§ Visibility from observer

Set your observer location to see the next 7 days of passes ≥ 10°. The values pass through the URL so the page stays shareable.

No JS? Fill the form by hand. The geolocation button needs JavaScript.